FLH409 KRDU-KFXE

Flight info

Callsign FLH409
Flight time 1h 46m
Altitude 43000
Route ROZBO5 ROZBO SLITT SMPRR ELMSZ Q97 KENLL CPTAN3
Aircraft C68A/M-SBDGHM1RWXY/LB2

Departure

Time 2026-04-22 04:57
Airport Raleigh-Durham International Airport (KRDU)

Arrival

Time 2026-04-22 06:44
Airport Fort Lauderdale Executive Airport (KFXE)
Time Latitude Longitude Altitude Speed Heading
2026-04-22 04:48 35.88090 -78.78332 429 ft 0 kts 229°
2026-04-22 04:52 35.88086 -78.78337 423 ft 4 kts 221°
2026-04-22 04:53 35.88051 -78.78324 422 ft 8 kts 124°
2026-04-22 04:53 35.88005 -78.78254 429 ft 12 kts 137°
2026-04-22 04:53 35.87965 -78.78178 429 ft 9 kts 63°
2026-04-22 04:53 35.88022 -78.78104 429 ft 14 kts 45°
2026-04-22 04:54 35.88083 -78.78041 426 ft 7 kts 347°
2026-04-22 04:54 35.88074 -78.78061 429 ft 4 kts 179°
2026-04-22 04:54 35.88037 -78.78079 426 ft 7 kts 201°
2026-04-22 04:54 35.87985 -78.78056 429 ft 9 kts 122°
2026-04-22 04:55 35.87972 -78.78025 424 ft 0 kts 124°
2026-04-22 04:56 35.87972 -78.78024 424 ft 1 kts 124°
2026-04-22 04:56 35.87933 -78.77976 432 ft 12 kts 139°
2026-04-22 04:57 35.87869 -78.77997 421 ft 13 kts 232°
2026-04-22 04:57 35.87630 -78.78297 428 ft 98 kts 224°
2026-04-22 04:57 35.86914 -78.79202 635 ft 181 kts 225°
2026-04-22 04:57 35.85980 -78.80447 1615 ft 219 kts 225°
2026-04-22 04:58 35.84874 -78.82003 2579 ft 253 kts 228°
2026-04-22 04:58 35.83736 -78.83692 4094 ft 260 kts 232°
2026-04-22 04:58 35.82571 -78.85443 5818 ft 267 kts 234°
2026-04-22 04:58 35.81436 -78.87167 7395 ft 256 kts 236°
2026-04-22 04:59 35.80319 -78.88889 8506 ft 258 kts 236°
2026-04-22 04:59 35.79204 -78.90637 9614 ft 262 kts 237°
2026-04-22 04:59 35.78088 -78.92423 10749 ft 265 kts 238°
2026-04-22 04:59 35.76961 -78.94256 11987 ft 271 kts 238°
2026-04-22 05:00 35.75821 -78.96149 13148 ft 280 kts 239°
2026-04-22 05:00 35.74664 -78.98110 14281 ft 287 kts 239°
2026-04-22 05:00 35.73488 -79.00130 15304 ft 293 kts 240°
2026-04-22 05:00 35.72294 -79.02184 16333 ft 298 kts 241°
2026-04-22 05:01 35.71080 -79.04283 17325 ft 304 kts 242°
2026-04-22 05:01 35.69840 -79.06427 18295 ft 310 kts 241°
2026-04-22 05:01 35.68338 -79.08410 19117 ft 324 kts 230°
2026-04-22 05:01 35.66346 -79.09879 19924 ft 347 kts 207°
2026-04-22 05:02 35.63897 -79.10351 20664 ft 368 kts 184°
2026-04-22 05:02 35.61340 -79.09713 21381 ft 385 kts 161°
2026-04-22 05:02 35.58901 -79.08166 22100 ft 393 kts 150°
2026-04-22 05:02 35.56624 -79.06341 22776 ft 399 kts 147°
2026-04-22 05:03 35.54266 -79.04415 23482 ft 405 kts 149°
2026-04-22 05:03 35.51847 -79.02687 24089 ft 409 kts 154°
2026-04-22 05:03 35.49315 -79.00995 24683 ft 412 kts 153°
2026-04-22 05:03 35.47661 -78.99820 25067 ft 415 kts 151°
2026-04-22 05:04 35.45181 -78.97973 25632 ft 419 kts 151°
2026-04-22 05:04 35.42671 -78.96146 26202 ft 422 kts 152°
2026-04-22 05:04 35.40115 -78.94350 26771 ft 424 kts 153°
2026-04-22 05:04 35.37551 -78.92528 27321 ft 428 kts 152°
2026-04-22 05:05 35.34979 -78.90670 27852 ft 431 kts 152°
2026-04-22 05:05 35.32377 -78.88802 28373 ft 435 kts 152°
2026-04-22 05:05 35.29759 -78.86940 28902 ft 437 kts 153°
2026-04-22 05:05 35.27117 -78.85056 29398 ft 440 kts 152°
2026-04-22 05:06 35.24462 -78.83159 29864 ft 444 kts 152°
2026-04-22 05:06 35.21789 -78.81251 30349 ft 446 kts 153°
2026-04-22 05:06 35.19093 -78.79332 30752 ft 449 kts 153°
2026-04-22 05:06 35.16390 -78.77410 31168 ft 451 kts 153°
2026-04-22 05:07 35.13676 -78.75478 31582 ft 452 kts 153°
2026-04-22 05:07 35.10950 -78.73540 31975 ft 454 kts 154°
2026-04-22 05:07 35.08211 -78.71596 32380 ft 456 kts 154°
2026-04-22 05:07 35.05465 -78.69647 32746 ft 458 kts 154°
2026-04-22 05:08 35.02706 -78.67691 33110 ft 460 kts 154°
2026-04-22 05:08 34.99925 -78.65753 33464 ft 460 kts 158°
2026-04-22 05:08 34.96985 -78.64292 33810 ft 454 kts 168°
2026-04-22 05:08 34.93939 -78.63410 34145 ft 447 kts 178°
2026-04-22 05:09 34.90863 -78.63111 34453 ft 440 kts 188°
2026-04-22 05:09 34.87820 -78.63299 34698 ft 438 kts 192°
2026-04-22 05:09 34.84766 -78.63530 34942 ft 441 kts 191°
2026-04-22 05:09 34.81690 -78.63750 35190 ft 443 kts 191°
2026-04-22 05:10 34.78634 -78.63979 35815 ft 433 kts 191°
2026-04-22 05:10 34.75620 -78.64209 36165 ft 436 kts 192°
2026-04-22 05:10 34.72628 -78.64673 36452 ft 431 kts 199°
2026-04-22 05:10 34.69735 -78.65541 36744 ft 427 kts 206°
2026-04-22 05:11 34.66962 -78.66791 37030 ft 423 kts 212°
2026-04-22 05:11 34.64354 -78.68388 37311 ft 418 kts 219°
2026-04-22 05:11 34.61906 -78.70280 37573 ft 417 kts 222°
2026-04-22 05:11 34.59459 -78.72206 37837 ft 421 kts 221°
2026-04-22 05:12 34.56986 -78.74125 38094 ft 423 kts 221°
2026-04-22 05:12 34.54504 -78.76073 38339 ft 426 kts 221°
2026-04-22 05:12 34.51983 -78.78063 38590 ft 428 kts 221°
2026-04-22 05:12 34.49512 -78.80001 38823 ft 431 kts 221°
2026-04-22 05:13 34.46950 -78.82001 39049 ft 433 kts 221°
2026-04-22 05:13 34.44400 -78.83969 39242 ft 438 kts 219°
2026-04-22 05:13 34.41676 -78.85690 39439 ft 445 kts 214°
2026-04-22 05:13 34.38898 -78.87356 39631 ft 445 kts 215°
2026-04-22 05:14 34.36129 -78.89051 39815 ft 447 kts 215°
2026-04-22 05:14 34.33342 -78.90739 40009 ft 449 kts 215°
2026-04-22 05:14 34.30560 -78.92397 40538 ft 440 kts 215°
2026-04-22 05:14 34.27822 -78.94039 40844 ft 439 kts 215°
2026-04-22 05:15 34.25087 -78.95704 40998 ft 441 kts 215°
2026-04-22 05:15 34.19538 -78.99037 41011 ft 446 kts 215°
2026-04-22 05:16 34.14039 -79.02335 41008 ft 438 kts 215°
2026-04-22 05:16 34.08585 -79.05612 41008 ft 438 kts 215°
2026-04-22 05:17 34.03109 -79.08889 41009 ft 441 kts 215°
2026-04-22 05:17 33.97570 -79.12202 41018 ft 442 kts 215°
2026-04-22 05:18 33.89326 -79.17121 41018 ft 441 kts 215°
2026-04-22 05:18 33.83777 -79.20431 41020 ft 447 kts 215°
2026-04-22 05:19 33.78224 -79.23725 41015 ft 443 kts 216°
2026-04-22 05:19 33.72731 -79.26994 41012 ft 440 kts 216°
2026-04-22 05:20 33.67289 -79.30407 41224 ft 439 kts 221°
2026-04-22 05:20 33.62271 -79.34610 41312 ft 443 kts 224°
2026-04-22 05:21 33.57270 -79.38820 41312 ft 433 kts 224°
2026-04-22 05:21 33.52389 -79.42983 41313 ft 429 kts 224°
2026-04-22 05:22 33.47515 -79.47101 41315 ft 428 kts 224°
2026-04-22 05:22 33.42646 -79.51224 41318 ft 429 kts 224°
2026-04-22 05:23 33.37725 -79.55377 41308 ft 430 kts 224°
2026-04-22 05:23 33.32832 -79.59504 41311 ft 431 kts 224°
2026-04-22 05:24 33.27931 -79.63629 41305 ft 430 kts 224°
2026-04-22 05:24 33.23079 -79.67707 41307 ft 421 kts 222°
2026-04-22 05:25 33.18302 -79.71722 41308 ft 419 kts 223°
2026-04-22 05:25 33.13518 -79.75735 41310 ft 422 kts 223°
2026-04-22 05:26 33.08702 -79.79767 41308 ft 424 kts 223°
2026-04-22 05:26 33.03874 -79.83804 41310 ft 424 kts 222°
2026-04-22 05:27 32.99064 -79.87821 41312 ft 421 kts 223°
2026-04-22 05:27 32.94272 -79.91818 41320 ft 419 kts 223°
2026-04-22 05:28 32.89505 -79.95791 41321 ft 420 kts 223°
2026-04-22 05:28 32.84676 -79.99806 41321 ft 422 kts 222°
2026-04-22 05:29 32.79854 -80.03812 41319 ft 423 kts 222°
2026-04-22 05:29 32.75030 -80.07813 41311 ft 423 kts 222°
2026-04-22 05:30 32.70212 -80.11804 41313 ft 422 kts 222°
2026-04-22 05:30 32.65408 -80.15779 41309 ft 420 kts 222°
2026-04-22 05:31 32.60611 -80.19743 41310 ft 419 kts 222°
2026-04-22 05:31 32.55829 -80.23689 41301 ft 419 kts 222°
2026-04-22 05:32 32.50944 -80.27534 41304 ft 427 kts 217°
2026-04-22 05:32 32.45688 -80.30855 41297 ft 429 kts 216°
2026-04-22 05:33 32.42286 -80.33026 41295 ft 430 kts 216°
2026-04-22 05:34 32.41679 -80.33410 41301 ft 430 kts 216°
2026-04-22 05:34 32.36479 -80.36684 41301 ft 430 kts 216°
2026-04-22 05:35 32.31221 -80.40010 41298 ft 428 kts 216°
2026-04-22 05:35 32.25980 -80.43312 41301 ft 426 kts 216°
2026-04-22 05:36 32.20756 -80.46604 41303 ft 426 kts 216°
2026-04-22 05:36 32.15520 -80.49897 41301 ft 427 kts 216°
2026-04-22 05:37 32.11117 -80.52663 41299 ft 429 kts 216°
2026-04-22 05:37 32.05843 -80.55972 41298 ft 429 kts 216°
2026-04-22 05:38 32.00586 -80.59264 41294 ft 426 kts 216°
2026-04-22 05:38 31.95366 -80.62532 41282 ft 424 kts 216°
2026-04-22 05:39 31.90133 -80.65802 41278 ft 423 kts 216°
2026-04-22 05:39 31.84926 -80.69053 41284 ft 424 kts 216°
2026-04-22 05:40 31.79697 -80.72312 41276 ft 426 kts 216°
2026-04-22 05:40 31.74471 -80.75567 41272 ft 427 kts 216°
2026-04-22 05:41 31.69220 -80.78828 41275 ft 426 kts 216°
2026-04-22 05:41 31.64001 -80.82071 41273 ft 424 kts 216°
2026-04-22 05:42 31.58797 -80.85297 41275 ft 422 kts 216°
2026-04-22 05:42 31.53594 -80.88522 41273 ft 424 kts 216°
2026-04-22 05:43 31.48357 -80.91761 41276 ft 426 kts 216°
2026-04-22 05:43 31.43106 -80.95005 41277 ft 428 kts 216°
2026-04-22 05:44 31.37849 -80.98247 41276 ft 426 kts 216°
2026-04-22 05:44 31.32609 -81.01477 41278 ft 425 kts 216°
2026-04-22 05:45 31.27199 -81.04356 41278 ft 433 kts 207°
2026-04-22 05:45 31.21257 -81.05985 41281 ft 446 kts 195°
2026-04-22 05:46 31.14966 -81.06309 41279 ft 455 kts 189°
2026-04-22 05:46 31.08633 -81.06466 41279 ft 457 kts 189°
2026-04-22 05:47 31.02268 -81.06582 41282 ft 457 kts 189°
2026-04-22 05:47 30.95916 -81.06720 41279 ft 455 kts 189°
2026-04-22 05:48 30.89593 -81.06847 41280 ft 454 kts 189°
2026-04-22 05:48 30.85759 -81.06926 41277 ft 453 kts 189°
2026-04-22 05:49 30.79412 -81.07058 41277 ft 452 kts 189°
2026-04-22 05:49 30.73161 -81.07187 41276 ft 453 kts 189°
2026-04-22 05:50 30.66806 -81.07317 41279 ft 455 kts 189°
2026-04-22 05:50 30.60488 -81.07526 41277 ft 453 kts 192°
2026-04-22 05:51 30.54182 -81.07919 41279 ft 455 kts 191°
2026-04-22 05:51 30.47914 -81.08286 41278 ft 453 kts 191°
2026-04-22 05:52 30.41628 -81.08670 41281 ft 452 kts 191°
2026-04-22 05:52 30.35361 -81.09044 41282 ft 450 kts 192°
2026-04-22 05:53 30.29100 -81.09423 41281 ft 451 kts 191°
2026-04-22 05:53 30.22812 -81.09798 41276 ft 453 kts 191°
2026-04-22 05:54 30.16505 -81.10176 41286 ft 454 kts 191°
2026-04-22 05:54 30.10174 -81.10554 41289 ft 456 kts 191°
2026-04-22 05:55 30.03846 -81.10931 41295 ft 455 kts 191°
2026-04-22 05:55 29.97535 -81.11308 41296 ft 453 kts 191°
2026-04-22 05:56 29.91251 -81.11682 41298 ft 452 kts 192°
2026-04-22 05:56 29.84961 -81.12057 41293 ft 453 kts 192°
2026-04-22 05:57 29.78626 -81.12253 41290 ft 459 kts 188°
2026-04-22 05:57 29.72234 -81.12296 41279 ft 460 kts 189°
2026-04-22 05:58 29.69018 -81.12319 41055 ft 464 kts 188°
2026-04-22 05:58 29.65802 -81.12323 40791 ft 459 kts 188°
2026-04-22 05:58 29.62627 -81.12330 40514 ft 453 kts 189°
2026-04-22 05:58 29.59785 -81.12185 40268 ft 455 kts 182°
2026-04-22 05:59 29.56639 -81.11645 39993 ft 459 kts 176°
2026-04-22 05:59 29.53533 -81.10717 39723 ft 465 kts 170°
2026-04-22 05:59 29.50474 -81.09457 39434 ft 467 kts 167°
2026-04-22 05:59 29.47423 -81.08198 39148 ft 466 kts 168°
2026-04-22 06:00 29.44369 -81.06953 38835 ft 465 kts 168°
2026-04-22 06:00 29.42328 -81.06107 38615 ft 462 kts 168°
2026-04-22 06:00 29.39462 -81.04907 38333 ft 457 kts 167°
2026-04-22 06:00 29.36449 -81.03658 38046 ft 452 kts 168°
2026-04-22 06:01 29.33497 -81.02447 37754 ft 449 kts 168°
2026-04-22 06:01 29.30565 -81.01239 37471 ft 447 kts 167°
2026-04-22 06:01 29.27678 -81.00044 37203 ft 446 kts 167°
2026-04-22 06:01 29.24731 -80.98826 36928 ft 444 kts 167°
2026-04-22 06:02 29.21835 -80.97634 36655 ft 442 kts 167°
2026-04-22 06:02 29.18954 -80.96448 36394 ft 439 kts 167°
2026-04-22 06:02 29.16089 -80.95267 36117 ft 435 kts 167°
2026-04-22 06:02 29.13251 -80.94099 35847 ft 432 kts 167°
2026-04-22 06:03 29.10433 -80.92941 35578 ft 428 kts 167°
2026-04-22 06:03 29.07626 -80.91788 35316 ft 426 kts 166°
2026-04-22 06:03 29.04841 -80.90644 35056 ft 423 kts 166°
2026-04-22 06:03 29.02105 -80.89520 34799 ft 420 kts 166°
2026-04-22 06:04 28.99359 -80.88393 34525 ft 418 kts 166°
2026-04-22 06:04 28.96640 -80.87279 34255 ft 415 kts 166°
2026-04-22 06:04 28.93930 -80.86168 33979 ft 412 kts 166°
2026-04-22 06:04 28.91237 -80.85065 33706 ft 410 kts 166°
2026-04-22 06:05 28.88567 -80.83974 33449 ft 407 kts 166°
2026-04-22 06:05 28.85906 -80.82887 33195 ft 406 kts 166°
2026-04-22 06:05 28.83249 -80.81803 32942 ft 405 kts 166°
2026-04-22 06:05 28.80592 -80.80718 32687 ft 405 kts 166°
2026-04-22 06:06 28.77906 -80.79621 32428 ft 405 kts 166°
2026-04-22 06:06 28.75265 -80.78543 32186 ft 402 kts 166°
2026-04-22 06:06 28.72668 -80.77485 31935 ft 399 kts 166°
2026-04-22 06:06 28.70062 -80.76423 31686 ft 399 kts 166°
2026-04-22 06:07 28.67393 -80.75341 31437 ft 404 kts 166°
2026-04-22 06:07 28.64728 -80.74256 31187 ft 409 kts 166°
2026-04-22 06:07 28.62040 -80.73160 30936 ft 411 kts 166°
2026-04-22 06:07 28.59357 -80.72066 30681 ft 408 kts 166°
2026-04-22 06:08 28.57590 -80.71348 30517 ft 406 kts 166°
2026-04-22 06:08 28.54939 -80.70273 30250 ft 403 kts 166°
2026-04-22 06:08 28.52301 -80.69203 29981 ft 401 kts 165°
2026-04-22 06:08 28.49683 -80.68140 29710 ft 398 kts 165°
2026-04-22 06:09 28.47080 -80.67085 29458 ft 397 kts 165°
2026-04-22 06:09 28.44480 -80.66032 29213 ft 397 kts 165°
2026-04-22 06:09 28.41888 -80.64982 28969 ft 396 kts 165°
2026-04-22 06:09 28.39294 -80.63931 28726 ft 395 kts 165°
2026-04-22 06:10 28.37021 -80.63011 28511 ft 394 kts 165°
2026-04-22 06:10 28.34453 -80.61972 28282 ft 391 kts 165°
2026-04-22 06:10 28.31894 -80.60937 28034 ft 389 kts 165°
2026-04-22 06:10 28.29351 -80.59910 27794 ft 387 kts 165°
2026-04-22 06:11 28.26819 -80.58888 27556 ft 385 kts 165°
2026-04-22 06:11 28.24300 -80.57871 27318 ft 383 kts 165°
2026-04-22 06:11 28.21793 -80.56860 27081 ft 382 kts 165°
2026-04-22 06:11 28.19294 -80.55852 26848 ft 381 kts 165°
2026-04-22 06:12 28.16802 -80.54847 26614 ft 379 kts 165°
2026-04-22 06:12 28.14320 -80.53848 26395 ft 378 kts 165°
2026-04-22 06:12 28.11839 -80.52849 26163 ft 378 kts 165°
2026-04-22 06:12 28.09368 -80.51854 25933 ft 377 kts 165°
2026-04-22 06:13 28.06897 -80.50861 25698 ft 376 kts 165°
2026-04-22 06:13 28.04428 -80.49868 25281 ft 376 kts 165°
2026-04-22 06:13 28.01979 -80.48883 24835 ft 371 kts 165°
2026-04-22 06:13 27.99557 -80.47909 24385 ft 367 kts 165°
2026-04-22 06:14 27.97159 -80.46947 23941 ft 364 kts 165°
2026-04-22 06:14 27.94779 -80.45993 23471 ft 361 kts 164°
2026-04-22 06:14 27.92421 -80.45047 23011 ft 358 kts 164°
2026-04-22 06:14 27.90328 -80.44208 22618 ft 356 kts 164°
2026-04-22 06:15 27.87998 -80.43272 22198 ft 354 kts 164°
2026-04-22 06:15 27.85678 -80.42341 21771 ft 352 kts 163°
2026-04-22 06:15 27.83383 -80.41421 21343 ft 349 kts 163°
2026-04-22 06:15 27.81108 -80.40509 20926 ft 345 kts 163°
2026-04-22 06:16 27.78855 -80.39606 20504 ft 342 kts 163°
2026-04-22 06:16 27.76621 -80.38712 20092 ft 339 kts 163°
2026-04-22 06:16 27.74409 -80.37826 19685 ft 336 kts 163°
2026-04-22 06:16 27.72208 -80.36946 19277 ft 334 kts 163°
2026-04-22 06:17 27.70023 -80.36072 18869 ft 332 kts 163°
2026-04-22 06:17 27.67851 -80.35204 18454 ft 330 kts 162°
2026-04-22 06:17 27.65716 -80.34298 18041 ft 327 kts 157°
2026-04-22 06:17 27.63660 -80.33183 17508 ft 330 kts 156°
2026-04-22 06:18 27.61603 -80.32091 16990 ft 321 kts 156°
2026-04-22 06:18 27.59589 -80.31043 16585 ft 318 kts 156°
2026-04-22 06:18 27.57589 -80.29987 16189 ft 317 kts 155°
2026-04-22 06:18 27.55606 -80.28933 15803 ft 314 kts 155°
2026-04-22 06:19 27.53636 -80.27894 15425 ft 312 kts 155°
2026-04-22 06:19 27.51679 -80.26865 15041 ft 309 kts 155°
2026-04-22 06:19 27.49741 -80.25842 14673 ft 306 kts 155°
2026-04-22 06:19 27.47816 -80.24828 14302 ft 304 kts 154°
2026-04-22 06:20 27.45906 -80.23821 13913 ft 303 kts 154°
2026-04-22 06:20 27.44003 -80.22818 13532 ft 301 kts 154°
2026-04-22 06:20 27.42109 -80.21821 13164 ft 300 kts 154°
2026-04-22 06:20 27.40225 -80.20829 12804 ft 299 kts 154°
2026-04-22 06:21 27.38357 -80.19847 12753 ft 297 kts 154°
2026-04-22 06:21 27.36476 -80.18858 12645 ft 299 kts 154°
2026-04-22 06:21 27.34596 -80.17870 12512 ft 298 kts 154°
2026-04-22 06:21 27.32718 -80.16882 12361 ft 297 kts 154°
2026-04-22 06:22 27.30844 -80.15898 12209 ft 297 kts 154°
2026-04-22 06:22 27.28977 -80.14918 12057 ft 296 kts 154°
2026-04-22 06:22 27.27116 -80.13941 11892 ft 295 kts 154°
2026-04-22 06:22 27.25253 -80.12974 11736 ft 293 kts 156°
2026-04-22 06:23 27.23347 -80.12076 11575 ft 294 kts 156°
2026-04-22 06:23 27.21476 -80.11154 11415 ft 293 kts 155°
2026-04-22 06:23 27.19612 -80.10238 11256 ft 292 kts 156°
2026-04-22 06:23 27.17743 -80.09335 11094 ft 293 kts 156°
2026-04-22 06:24 27.14005 -80.07543 10776 ft 291 kts 159°
2026-04-22 06:24 27.12027 -80.07088 10611 ft 291 kts 173°
2026-04-22 06:24 27.10020 -80.06783 10459 ft 291 kts 171°
2026-04-22 06:25 27.08027 -80.06412 10299 ft 290 kts 171°
2026-04-22 06:25 27.06029 -80.06081 10148 ft 290 kts 172°
2026-04-22 06:25 27.04032 -80.05763 9973 ft 289 kts 171°
2026-04-22 06:25 27.02040 -80.05436 9810 ft 289 kts 171°
2026-04-22 06:26 27.00053 -80.05105 9646 ft 289 kts 171°
2026-04-22 06:26 26.98073 -80.04777 9492 ft 288 kts 171°
2026-04-22 06:26 26.96330 -80.04491 9349 ft 287 kts 171°
2026-04-22 06:26 26.94360 -80.04167 9192 ft 285 kts 171°
2026-04-22 06:27 26.92402 -80.03843 9040 ft 285 kts 171°
2026-04-22 06:27 26.90427 -80.03814 8887 ft 286 kts 187°
2026-04-22 06:27 26.88500 -80.04388 8734 ft 287 kts 201°
2026-04-22 06:27 26.86774 -80.05506 8581 ft 288 kts 217°
2026-04-22 06:28 26.85192 -80.06868 8421 ft 286 kts 213°
2026-04-22 06:28 26.83398 -80.07810 8272 ft 284 kts 196°
2026-04-22 06:28 26.81513 -80.08465 8121 ft 284 kts 196°
2026-04-22 06:28 26.79708 -80.09130 7972 ft 283 kts 197°
2026-04-22 06:29 26.77966 -80.09693 7822 ft 280 kts 188°
2026-04-22 06:29 26.76034 -80.09753 7673 ft 276 kts 173°
2026-04-22 06:29 26.74117 -80.09609 7522 ft 277 kts 174°
2026-04-22 06:29 26.72209 -80.09500 7376 ft 277 kts 174°
2026-04-22 06:30 26.70279 -80.09373 7223 ft 275 kts 174°
2026-04-22 06:30 26.68373 -80.09236 7074 ft 275 kts 173°
2026-04-22 06:30 26.66469 -80.09112 6929 ft 273 kts 174°
2026-04-22 06:30 26.64575 -80.08990 6775 ft 273 kts 173°
2026-04-22 06:31 26.62687 -80.08859 6619 ft 271 kts 173°
2026-04-22 06:31 26.60817 -80.08640 6455 ft 268 kts 163°
2026-04-22 06:31 26.59065 -80.07978 6310 ft 265 kts 158°
2026-04-22 06:31 26.57309 -80.07359 6161 ft 265 kts 160°
2026-04-22 06:32 26.55543 -80.06764 6017 ft 263 kts 159°
2026-04-22 06:32 26.53806 -80.06130 5872 ft 263 kts 158°
2026-04-22 06:32 26.52066 -80.05491 5729 ft 263 kts 158°
2026-04-22 06:32 26.50332 -80.04876 5584 ft 261 kts 159°
2026-04-22 06:33 26.48601 -80.04260 5444 ft 259 kts 158°
2026-04-22 06:33 26.46893 -80.03645 5316 ft 258 kts 158°
2026-04-22 06:33 26.45217 -80.03043 5173 ft 257 kts 158°
2026-04-22 06:33 26.43477 -80.02463 5020 ft 257 kts 164°
2026-04-22 06:34 26.41675 -80.02351 4869 ft 261 kts 180°
2026-04-22 06:34 26.39844 -80.02577 4712 ft 262 kts 182°
2026-04-22 06:34 26.38038 -80.02779 4565 ft 260 kts 181°
2026-04-22 06:34 26.36229 -80.02988 4423 ft 261 kts 182°
2026-04-22 06:35 26.34439 -80.03210 4320 ft 259 kts 181°
2026-04-22 06:35 26.32647 -80.03422 4195 ft 260 kts 181°
2026-04-22 06:35 26.30846 -80.03638 4020 ft 260 kts 184°
2026-04-22 06:35 26.29161 -80.04381 3979 ft 268 kts 213°
2026-04-22 06:36 26.27979 -80.05992 3975 ft 272 kts 243°
2026-04-22 06:36 26.27361 -80.07986 3983 ft 275 kts 253°
2026-04-22 06:36 26.26842 -80.10041 3982 ft 274 kts 254°
2026-04-22 06:36 26.26415 -80.12105 3979 ft 274 kts 258°
2026-04-22 06:37 26.26040 -80.14200 3980 ft 276 kts 258°
2026-04-22 06:37 26.25676 -80.16295 3981 ft 276 kts 258°
2026-04-22 06:37 26.25317 -80.18396 3922 ft 277 kts 258°
2026-04-22 06:37 26.24958 -80.20476 3726 ft 270 kts 258°
2026-04-22 06:38 26.24619 -80.22524 3477 ft 267 kts 261°
2026-04-22 06:38 26.24375 -80.24541 3223 ft 259 kts 262°
2026-04-22 06:38 26.24147 -80.26550 2962 ft 257 kts 263°
2026-04-22 06:38 26.23930 -80.28502 2711 ft 248 kts 263°
2026-04-22 06:39 26.23719 -80.30378 2453 ft 242 kts 263°
2026-04-22 06:39 26.23508 -80.32224 2195 ft 239 kts 261°
2026-04-22 06:39 26.22877 -80.33904 1969 ft 235 kts 226°
2026-04-22 06:39 26.21574 -80.34842 1968 ft 218 kts 189°
2026-04-22 06:40 26.20141 -80.34785 1968 ft 203 kts 153°
2026-04-22 06:40 26.19074 -80.33846 1971 ft 195 kts 122°
2026-04-22 06:40 26.18404 -80.32564 1976 ft 190 kts 105°
2026-04-22 06:40 26.18338 -80.31129 1972 ft 187 kts 82°
2026-04-22 06:41 26.18606 -80.29704 1972 ft 189 kts 77°
2026-04-22 06:41 26.18847 -80.28259 1974 ft 191 kts 83°
2026-04-22 06:41 26.18969 -80.26807 1925 ft 181 kts 86°
2026-04-22 06:41 26.18991 -80.25906 1871 ft 166 kts 87°
2026-04-22 06:42 26.19090 -80.24650 1583 ft 163 kts 83°
2026-04-22 06:42 26.19222 -80.23429 1287 ft 155 kts 83°
2026-04-22 06:42 26.19334 -80.22329 1039 ft 121 kts 83°
2026-04-22 06:42 26.19423 -80.21427 766 ft 120 kts 82°
2026-04-22 06:43 26.19520 -80.20528 497 ft 115 kts 83°
2026-04-22 06:43 26.19600 -80.19633 377 ft 114 kts 81°
2026-04-22 06:43 26.19683 -80.18771 168 ft 112 kts 81°
2026-04-22 06:43 26.19769 -80.17951 15 ft 98 kts 82°
2026-04-22 06:44 26.19828 -80.17385 18 ft 51 kts 85°
2026-04-22 06:44 26.19849 -80.17165 20 ft 16 kts 84°
2026-04-22 06:44 26.19826 -80.17098 20 ft 7 kts 128°
2026-04-22 06:44 26.19803 -80.17069 20 ft 4 kts 142°
2026-04-22 06:45 26.19778 -80.17071 21 ft 5 kts 200°
2026-04-22 06:45 26.19760 -80.17114 19 ft 8 kts 263°
2026-04-22 06:45 26.19754 -80.17180 20 ft 9 kts 263°
2026-04-22 06:45 26.19745 -80.17258 21 ft 11 kts 263°
2026-04-22 06:46 26.19714 -80.17283 21 ft 8 kts 134°
2026-04-22 06:46 26.19669 -80.17220 21 ft 13 kts 130°
2026-04-22 06:46 26.19603 -80.17130 19 ft 16 kts 129°
2026-04-22 06:46 26.19536 -80.17081 20 ft 7 kts 212°
2026-04-22 06:47 26.19505 -80.17105 19 ft 4 kts 206°
2026-04-22 06:47 26.19477 -80.17103 19 ft 1 kts 154°
2026-04-22 06:47 26.19461 -80.17060 18 ft 11 kts 103°
2026-04-22 06:47 26.19444 -80.17017 18 ft 0 kts 102°